GW5177 Weather Reports


Display with metric or nautical units.
time (UTC)temp
F
wind
direction
speed
MPH
gust
MPH
rain 1hr
in
rain 24hr
in
rain mn
in
humidity
%
barometer
mb
20260510190827 73 212 2.0 3.0 0.00 0.00 0.00 59 1017.4
20260510190324 74 259 1.0 3.0 0.00 0.00 0.00 59 1017.2
20260510185815 74 311 1.0 3.0 0.00 0.00 0.00 58 1017.2
20260510185313 74 334 1.0 4.0 0.00 0.00 0.00 57 1017.1
20260510184810 76 286 2.0 3.0 0.00 0.00 0.00 57 1017.1
20260510184307 77 214 1.0 6.0 0.00 0.00 0.00 56 1017.0
20260510183806 76 105 0.0 2.0 0.00 0.00 0.00 57 1017.0
20260510183301 75 344 0.0 3.0 0.00 0.00 0.00 60 1017.0
20260510182758 77 253 0.0 4.0 0.00 0.00 0.00 58 1016.9
20260510182254 76 287 1.0 2.0 0.00 0.00 0.00 58 1016.9
20260510181751 76 142 1.0 2.0 0.00 0.00 0.00 58 1017.0
20260510181248 77 94 6.0 8.0 0.00 0.00 0.00 57 1016.9
20260510180744 79 229 1.0 1.0 0.00 0.00 0.00 55 1016.8
20260510180242 77 229 0.0 1.0 0.00 0.00 0.00 59 1017.1
20260510175738 77 229 2.0 3.0 0.00 0.00 0.00 58 1017.0
20260510175233 77 114 2.0 4.0 0.00 0.00 0.00 57 1016.7
20260510174731 77 225 0.0 1.0 0.00 0.00 0.00 57 1016.6
20260510174228 77 225 0.0 0.0 0.00 0.00 0.00 61 1016.7
20260510173724 77 235 1.0 2.0 0.00 0.00 0.00 59 1017.0
20260510173220 76 219 0.0 2.0 0.00 0.00 0.00 56 1016.8
20260510172715 76 221 0.0 2.0 0.00 0.00 0.00 60 1016.9
20260510172212 77 224 0.0 2.0 0.00 0.00 0.00 64 1016.9
20260510171709 74 224 0.0 1.0 0.00 0.00 0.00 63 1016.8
20260510171206 73 224 1.0 2.0 0.00 0.00 0.00 62 1016.8
20260510170703 73 225 1.0 1.0 0.00 0.00 0.00 62 1017.0
20260510170159 71 224 0.0 1.0 0.00 0.00 0.00 64 1017.1
20260510165655 71 224 0.0 0.0 0.00 0.00 0.00 65 1017.1
20260510165151 72 224 1.0 2.0 0.00 0.00 0.00 63 1017.1
20260510164649 73 227 0.0 0.0 0.00 0.00 0.00 62 1017.0
20260510164146 74 226 1.0 2.0 0.00 0.00 0.00 58 1016.9
20260510163641 73 227 0.0 1.0 0.00 0.00 0.00 61 1016.8
20260510163137 73 226 2.0 3.0 0.00 0.00 0.00 58 1016.9
20260510162631 73 234 1.0 2.0 0.00 0.00 0.00 59 1016.9
20260510162128 74 235 0.0 2.0 0.00 0.00 0.00 60 1016.8
20260510161624 75 234 0.0 0.0 0.00 0.00 0.00 55 1016.9
20260510161121 75 254 2.0 3.0 0.00 0.00 0.00 59 1017.0
20260510160618 74 241 1.0 2.0 0.00 0.00 0.00 57 1016.9
20260510160118 74 16 2.0 2.0 0.00 0.00 0.00 57 1017.0
20260510155615 75 20 0.0 2.0 0.00 0.00 0.00 59 1016.8
20260510155111 74 161 0.0 2.0 0.00 0.00 0.00 58 1016.9
20260510154606 75 234 0.0 2.0 0.00 0.00 0.00 58 1016.7
20260510154102 74 232 1.0 2.0 0.00 0.00 0.00 60 1016.9
20260510153557 74 242 2.0 3.0 0.00 0.00 0.00 57 1016.9
20260510153054 74 201 0.0 1.0 0.00 0.00 0.00 60 1016.9
20260510152551 76 255 0.0 2.0 0.00 0.00 0.00 58 1016.7
20260510152047 75 70 0.0 0.0 0.00 0.00 0.00 58 1016.8
20260510151543 75 65 2.0 2.0 0.00 0.00 0.00 57 1016.5
20260510151041 74 223 2.0 3.0 0.00 0.00 0.00 60 1016.5
20260510150536 74 220 2.0 4.0 0.00 0.00 0.00 57 1016.4
20260510150032 74 242 0.0 2.0 0.00 0.00 0.00 58 1016.6
20260510145529 74 121 1.0 2.0 0.00 0.00 0.00 63 1016.7
20260510145026 72 195 0.0 1.0 0.00 0.00 0.00 63 1016.7
20260510144522 72 157 1.0 2.0 0.00 0.00 0.00 64 1016.8
20260510144019 73 288 0.0 2.0 0.00 0.00 0.00 63 1016.8
20260510143514 72 95 1.0 2.0 0.00 0.00 0.00 63 1016.8
20260510143011 72 254 2.0 2.0 0.00 0.00 0.00 61 1016.9
20260510142507 73 266 2.0 3.0 0.00 0.00 0.00 64 1016.6
20260510142004 72 37 0.0 1.0 0.00 0.00 0.00 64 1016.7
20260510141500 72 274 0.0 0.0 0.00 0.00 0.00 66 1016.8
20260510140958 72 236 0.0 1.0 0.00 0.00 0.00 67 1016.7
20260510140454 70 39 0.0 1.0 0.00 0.00 0.00 67 1016.7
20260510135953 69 119 0.0 2.0 0.00 0.00 0.00 69 1016.9
20260510135449 68 43 0.0 0.0 0.00 0.00 0.00 74 1016.9
20260510134946 68 336 1.0 2.0 0.00 0.00 0.00 68 1016.9
20260510134443 68 12 1.0 1.0 0.00 0.00 0.00 71 1016.8
20260510133940 68 245 0.0 1.0 0.00 0.00 0.00 69 1016.8
20260510133436 70 331 2.0 3.0 0.00 0.00 0.00 67 1016.9
20260510132932 69 183 0.0 1.0 0.00 0.00 0.00 71 1016.6
20260510132429 70 116 0.0 1.0 0.00 0.00 0.00 73 1016.8
20260510131926 69 76 0.0 0.0 0.00 0.00 0.00 72 1016.6
20260510131424 68 75 0.0 0.0 0.00 0.00 0.00 71 1016.7
20260510130920 68 76 1.0 2.0 0.00 0.00 0.00 72 1016.3
20260510130417 67 76 0.0 1.0 0.00 0.00 0.00 76 1016.6
20260510125914 66 75 0.0 0.0 0.00 0.00 0.00 79 1016.4
20260510125405 65 76 1.0 1.0 0.00 0.00 0.00 82 1016.5
20260510124902 64 103 0.0 0.0 0.00 0.00 0.00 86 1016.3
20260510124358 62 103 0.0 1.0 0.00 0.00 0.00 87 1016.4
20260510123854 61 103 0.0 0.0 0.00 0.00 0.00 91 1016.6
20260510123349 60 103 0.0 0.0 0.00 0.00 0.00 98 1016.3
20260510122846 58 103 0.0 0.0 0.00 0.00 0.00 99 1016.3
20260510122341 57 106 0.0 0.0 0.00 0.00 0.00 99 1016.1
20260510121838 56 106 0.0 0.0 0.00 0.00 0.00 99 1016.3
20260510121336 55 106 0.0 0.0 0.00 0.00 0.00 99 1016.3
20260510120833 54 106 0.0 0.0 0.00 0.00 0.00 99 1016.2
20260510120330 54 106 0.0 0.0 0.00 0.00 0.00 99 1016.5
20260510115825 52 106 0.0 0.0 0.00 0.00 0.00 99 1016.1
20260510115323 51 106 0.0 0.0 0.00 0.00 0.00 99 1016.1
20260510114819 49 106 0.0 0.0 0.00 0.00 0.00 99 1016.2
20260510114316 49 111 0.0 0.0 0.00 0.00 0.00 99 1016.1
20260510113811 48 111 0.0 0.0 0.00 0.00 0.00 99 1016.0
20260510113308 48 111 0.0 0.0 0.00 0.00 0.00 99 1015.8
20260510112805 47 111 0.0 0.0 0.00 0.00 0.00 99 1015.9
20260510112305 47 111 0.0 0.0 0.00 0.00 0.00 99 1015.9
20260510111757 47 111 0.0 0.0 0.00 0.00 0.00 99 1015.8
20260510111254 47 111 0.0 0.0 0.00 0.00 0.00 99 1015.6
20260510110754 46 111 0.0 0.0 0.00 0.00 0.00 99 1015.5
20260510110252 46 111 0.0 0.0 0.00 0.00 0.00 99 1015.2
20260510105752 46 111 0.0 0.0 0.00 0.00 0.00 99 1015.2
20260510105247 46 111 0.0 0.0 0.00 0.00 0.00 99 1015.2
20260510104743 45 111 0.0 0.0 0.00 0.00 0.00 99 1015.2
20260510104241 45 111 0.0 0.0 0.00 0.00 0.00 99 1015.3
20260510103737 45 111 0.0 0.0 0.00 0.00 0.00 99 1015.2
20260510103235 45 111 0.0 0.0 0.00 0.00 0.00 99 1015.0
20260510102734 45 111 0.0 0.0 0.00 0.00 0.00 99 1015.0
20260510102230 45 110 0.0 0.0 0.00 0.00 0.00 99 1014.9
20260510101728 45 110 0.0 0.0 0.00 0.00 0.00 99 1015.0
20260510101226 45 110 0.0 0.0 0.00 0.00 0.00 99 1015.1
20260510100722 45 110 0.0 0.0 0.00 0.00 0.00 99 1015.1
20260510100221 46 110 0.0 0.0 0.00 0.00 0.00 99 1015.2
20260510095721 46 110 0.0 0.0 0.00 0.00 0.00 99 1014.9
20260510095216 45 110 0.0 0.0 0.00 0.00 0.00 99 1014.9
20260510094715 45 110 0.0 0.0 0.00 0.00 0.00 99 1014.7
20260510094211 45 110 0.0 0.0 0.00 0.00 0.00 99 1014.4
20260510093707 45 110 0.0 0.0 0.00 0.00 0.00 99 1014.5
20260510093204 46 110 0.0 0.0 0.00 0.00 0.00 99 1014.6
20260510092700 46 110 0.0 0.0 0.00 0.00 0.00 99 1014.6
20260510092156 46 110 0.0 0.0 0.00 0.00 0.00 99 1014.5
20260510091652 46 110 0.0 0.0 0.00 0.00 0.00 99 1014.4
20260510091148 46 110 0.0 0.0 0.00 0.00 0.00 99 1014.2
20260510090645 46 110 0.0 0.0 0.00 0.00 0.00 99 1014.4
20260510090142 46 110 0.0 0.0 0.00 0.00 0.00 99 1014.3
20260510085637 46 110 0.0 0.0 0.00 0.00 0.00 99 1014.3
20260510085132 46 110 0.0 0.0 0.00 0.00 0.00 99 1014.1
20260510084629 46 110 0.0 0.0 0.00 0.00 0.00 99 1014.1
20260510084126 46 110 0.0 0.0 0.00 0.00 0.00 99 1014.2
20260510083622 46 110 0.0 0.0 0.00 0.00 0.00 99 1014.0
20260510083119 46 110 0.0 0.0 0.00 0.00 0.00 99 1014.1
20260510082615 46 110 0.0 0.0 0.00 0.00 0.00 99 1013.9
20260510082111 46 110 0.0 0.0 0.00 0.00 0.00 99 1013.9
20260510081606 46 110 0.0 0.0 0.00 0.00 0.00 99 1014.1
20260510081102 46 110 0.0 0.0 0.00 0.00 0.00 99 1013.7
20260510080602 46 110 0.0 0.0 0.00 0.00 0.00 99 1014.0
20260510080058 46 110 0.0 0.0 0.00 0.00 0.00 99 1013.9
20260510075556 46 110 0.0 0.0 0.00 0.00 0.00 99 1013.7
20260510075052 46 110 0.0 0.0 0.00 0.00 0.00 99 1013.8
20260510074550 47 110 0.0 0.0 0.00 0.00 0.00 99 1013.7
20260510074045 47 110 0.0 0.0 0.00 0.00 0.00 99 1014.0
20260510073542 47 110 0.0 0.0 0.00 0.00 0.00 99 1013.8
20260510073039 47 110 0.0 0.0 0.00 0.00 0.00 99 1013.9
20260510072535 47 110 0.0 0.0 0.00 0.00 0.00 99 1013.8
20260510072031 47 110 0.0 0.0 0.00 0.00 0.00 99 1013.7
20260510071527 47 110 0.0 0.0 0.00 0.00 0.00 99 1013.7
20260510071026 47 156 0.0 0.0 0.00 0.00 0.00 99 1013.8
20260510070522 47 156 0.0 0.0 0.00 0.00 0.00 99 1013.8
20260510070019 47 156 0.0 0.0 0.00 0.00 0.00 99 1013.7
20260510065515 47 157 0.0 0.0 0.00 0.00 0.00 99 1013.8
20260510065011 47 157 0.0 0.0 0.00 0.00 0.00 99 1013.8
20260510064508 47 157 0.0 0.0 0.00 0.00 0.00 99 1013.8
20260510064005 47 157 0.0 0.0 0.00 0.00 0.00 99 1013.6
20260510063502 47 158 0.0 0.0 0.00 0.00 0.00 99 1013.8
20260510062959 47 158 0.0 0.0 0.00 0.00 0.00 99 1013.8
20260510062455 47 158 0.0 0.0 0.00 0.00 0.00 99 1013.8
20260510061949 47 158 0.0 0.0 0.00 0.00 0.00 99 1014.0
20260510061447 48 158 0.0 0.0 0.00 0.00 0.00 99 1013.8
20260510060943 48 159 0.0 0.0 0.00 0.00 0.00 99 1013.9
20260510060440 48 159 0.0 0.0 0.00 0.00 0.00 99 1014.1
20260510055936 48 159 0.0 0.0 0.00 0.00 0.00 99 1014.0
20260510055432 48 159 0.0 0.0 0.00 0.00 0.00 99 1013.8
20260510054925 48 159 0.0 0.0 0.00 0.00 0.00 99 1014.0
20260510054420 48 159 0.0 0.0 0.00 0.00 0.00 99 1014.0
20260510053915 48 159 0.0 0.0 0.00 0.00 0.00 99 1014.0
20260510053411 48 159 0.0 0.0 0.00 0.00 0.00 99 1014.0
20260510052908 48 159 0.0 0.0 0.00 0.00 0.00 99 1014.0
20260510052403 48 159 0.0 0.0 0.00 0.00 0.00 99 1014.0
20260510051900 48 159 0.0 0.0 0.00 0.00 0.00 99 1014.3
20260510051356 48 159 0.0 0.0 0.00 0.00 0.00 99 1014.3
20260510050853 48 159 0.0 0.0 0.00 0.00 0.00 99 1014.2
20260510050350 48 159 0.0 0.0 0.00 0.00 0.00 99 1014.2
20260510045847 49 159 0.0 0.0 0.00 0.00 0.00 99 1014.2
20260510045343 49 159 0.0 0.0 0.00 0.00 0.00 99 1014.2
20260510044841 49 159 0.0 0.0 0.00 0.00 0.00 99 1014.4
20260510044337 49 159 0.0 0.0 0.00 0.00 0.00 99 1014.4
20260510043834 49 159 0.0 0.0 0.00 0.00 0.00 99 1014.5
20260510043330 49 159 0.0 0.0 0.00 0.00 0.00 99 1014.3
20260510042828 49 159 0.0 0.0 0.00 0.00 0.00 99 1014.4
20260510042324 49 159 0.0 0.0 0.00 0.00 0.00 99 1014.4
20260510041820 49 159 0.0 0.0 0.00 0.00 0.00 99 1014.5
20260510041318 49 159 0.0 0.0 0.00 0.00 0.00 99 1014.5
20260510040815 49 159 0.0 0.0 0.00 0.00 0.00 99 1014.5
20260510040311 49 159 0.0 0.0 0.00 0.00 0.00 99 1014.3
20260510035807 49 159 0.0 0.0 0.00 0.00 0.00 99 1014.5
20260510035306 49 159 0.0 0.0 0.00 0.00 0.00 99 1014.4
20260510034759 50 159 0.0 0.0 0.00 0.00 0.00 99 1014.3
20260510034256 50 159 0.0 0.0 0.00 0.00 0.00 99 1014.3
20260510033752 50 159 0.0 0.0 0.00 0.00 0.00 99 1014.4
20260510033250 50 159 0.0 0.0 0.00 0.00 0.00 99 1014.4
20260510032746 50 159 0.0 0.0 0.00 0.00 0.00 99 1014.3
20260510032243 50 159 0.0 0.0 0.00 0.00 0.00 98 1014.2
20260510031738 51 159 0.0 0.0 0.00 0.00 0.00 98 1014.1
20260510031234 51 159 0.0 0.0 0.00 0.00 0.00 98 1014.3
20260510030733 51 159 0.0 0.0 0.00 0.00 0.00 98 1014.2
20260510030231 51 159 0.0 0.0 0.00 0.00 0.00 98 1014.2
20260510025728 51 159 0.0 0.0 0.00 0.00 0.00 98 1014.1
20260510025225 51 159 0.0 0.0 0.00 0.00 0.00 98 1014.2
20260510024722 51 159 0.0 0.0 0.00 0.00 0.00 97 1014.1
20260510024219 52 159 0.0 0.0 0.00 0.00 0.00 97 1014.0
20260510023714 52 159 0.0 0.0 0.00 0.00 0.00 97 1013.8
20260510023211 52 159 0.0 0.0 0.00 0.00 0.00 97 1013.8
20260510022707 52 159 0.0 0.0 0.00 0.00 0.00 97 1014.0
20260510022202 53 159 0.0 0.0 0.00 0.00 0.00 96 1013.6
20260510021657 53 159 0.0 0.0 0.00 0.00 0.00 96 1013.6
20260510021155 53 159 0.0 0.0 0.00 0.00 0.00 96 1013.4
20260510020650 53 159 0.0 0.0 0.00 0.00 0.00 95 1013.4
20260510020145 53 159 0.0 0.0 0.00 0.00 0.00 95 1013.4
20260510015642 54 159 0.0 0.0 0.00 0.00 0.00 94 1013.2
20260510015138 54 159 0.0 0.0 0.00 0.00 0.00 93 1013.2
20260510014633 54 159 0.0 0.0 0.00 0.00 0.00 93 1013.2
20260510014131 55 159 0.0 0.0 0.00 0.00 0.00 92 1013.1
20260510013631 55 159 0.0 0.0 0.00 0.00 0.00 92 1013.0
20260510013126 55 159 0.0 0.0 0.00 0.00 0.00 91 1012.7
20260510012626 56 160 0.0 0.0 0.00 0.00 0.00 91 1012.6
20260510012123 56 162 0.0 0.0 0.00 0.00 0.00 90 1012.8
20260510011622 56 162 0.0 0.0 0.00 0.00 0.00 89 1013.0
20260510011118 56 163 0.0 0.0 0.00 0.00 0.00 89 1012.7
20260510010615 57 165 0.0 0.0 0.00 0.00 0.00 87 1012.6
20260510010112 57 165 0.0 0.0 0.00 0.00 0.00 86 1012.4
20260510005607 58 165 0.0 0.0 0.00 0.00 0.00 85 1012.4
20260510005105 59 165 0.0 0.0 0.00 0.00 0.00 84 1012.3
20260510004603 59 165 0.0 0.0 0.00 0.00 0.00 83 1012.6
20260510004101 60 165 0.0 0.0 0.00 0.00 0.00 81 1012.2
20260510003557 61 165 0.0 0.0 0.00 0.00 0.00 80 1012.2
20260510003053 61 166 0.0 0.0 0.00 0.00 0.00 79 1012.1
20260510002548 62 169 0.0 0.0 0.00 0.00 0.00 78 1012.0
20260510002046 62 169 0.0 0.0 0.00 0.00 0.00 76 1012.1
20260510001543 63 169 0.0 0.0 0.00 0.00 0.00 74 1012.2
20260510001042 64 169 0.0 0.0 0.00 0.00 0.00 74 1011.7
20260510000542 64 169 0.0 0.0 0.00 0.00 0.00 73 1012.0
20260510000039 65 188 0.0 0.0 0.00 0.00 0.00 72 1011.7
20260509235535 66 204 0.0 0.0 0.00 0.00 0.00 70 1011.7
20260509235032 67 211 0.0 0.0 0.00 0.00 0.00 69 1011.7
20260509234528 67 206 0.0 0.0 0.00 0.00 0.00 67 1011.8
20260509234027 68 286 1.0 2.0 0.00 0.00 0.00 65 1011.7
20260509233524 69 282 0.0 2.0 0.00 0.00 0.00 64 1011.7
20260509233021 71 292 1.0 2.0 0.00 0.00 0.00 60 1011.7
20260509232517 71 143 0.0 0.0 0.00 0.00 0.00 59 1011.7
20260509232014 71 295 0.0 0.0 0.00 0.00 0.00 59 1012.1
20260509231510 71 46 0.0 0.0 0.00 0.00 0.00 62 1011.9
20260509231008 71 20 0.0 1.0 0.00 0.00 0.00 61 1011.8
20260509230505 72 74 0.0 0.0 0.00 0.00 0.00 58 1011.6
20260509230001 72 93 0.0 0.0 0.00 0.00 0.00 60 1011.6
20260509225452 71 77 1.0 2.0 0.00 0.00 0.00 58 1011.6
20260509224948 71 2 0.0 1.0 0.00 0.00 0.00 57 1011.5
20260509224443 72 216 0.0 2.0 0.00 0.00 0.00 58 1011.4
20260509223941 73 44 0.0 0.0 0.00 0.00 0.00 58 1011.6
20260509223437 73 60 0.0 0.0 0.00 0.00 0.00 57 1011.7
20260509222935 74 319 2.0 3.0 0.00 0.00 0.00 54 1011.5
20260509222429 76 22 0.0 1.0 0.00 0.00 0.00 53 1011.5
20260509221926 76 47 1.0 3.0 0.00 0.00 0.00 51 1011.4
20260509221423 77 57 0.0 1.0 0.00 0.00 0.00 52 1011.6
20260509220918 79 248 1.0 1.0 0.00 0.00 0.00 48 1011.5
20260509220415 77 104 0.0 0.0 0.00 0.00 0.00 55 1011.4
20260509215911 74 153 0.0 0.0 0.00 0.00 0.00 54 1011.7
20260509215406 77 168 2.0 3.0 0.00 0.00 0.00 52 1011.7
20260509214904 76 101 0.0 3.0 0.00 0.00 0.00 54 1011.7
20260509214401 80 154 0.0 2.0 0.00 0.00 0.00 50 1011.8
20260509213858 80 253 1.0 2.0 0.00 0.00 0.00 47 1011.8
20260509213354 78 122 0.0 0.0 0.00 0.00 0.00 51 1011.9
20260509212851 76 274 1.0 1.0 0.00 0.00 0.00 54 1011.8
20260509212343 78 206 0.0 1.0 0.00 0.00 0.00 52 1011.8
20260509211839 78 61 1.0 2.0 0.00 0.00 0.00 51 1011.8
20260509211334 78 113 0.0 1.0 0.00 0.00 0.00 50 1012.0
20260509210831 78 162 1.0 6.0 0.00 0.00 0.00 52 1011.9
20260509210329 78 38 0.0 1.0 0.00 0.00 0.00 54 1011.7
20260509205828 78 38 1.0 2.0 0.00 0.00 0.00 52 1011.8
20260509205323 75 340 0.0 1.0 0.00 0.00 0.00 59 1011.9
20260509204820 73 56 1.0 1.0 0.00 0.00 0.00 59 1012.1
20260509204316 73 67 0.0 2.0 0.00 0.00 0.00 60 1011.7
20260509203813 71 62 0.0 1.0 0.00 0.00 0.00 60 1011.9
20260509203310 72 211 1.0 2.0 0.00 0.00 0.00 61 1011.8
20260509202806 72 255 1.0 1.0 0.00 0.00 0.00 63 1012.0
20260509202306 72 251 1.0 2.0 0.00 0.00 0.00 58 1011.9
20260509201801 73 298 0.0 2.0 0.00 0.00 0.00 60 1011.8
20260509201259 73 239 0.0 2.0 0.00 0.00 0.00 61 1011.9
20260509200754 73 239 1.0 1.0 0.00 0.00 0.00 59 1011.7
20260509200250 74 348 0.0 4.0 0.00 0.00 0.00 58 1011.6
20260509195746 73 60 0.0 3.0 0.00 0.00 0.00 62 1011.8
20260509195242 71 253 2.0 3.0 0.00 0.00 0.00 60 1011.6
20260509194741 72 227 2.0 3.0 0.00 0.00 0.00 58 1011.9
20260509194238 73 27 1.0 2.0 0.00 0.00 0.00 61 1011.7
20260509193735 73 218 0.0 1.0 0.00 0.00 0.00 62 1011.8
20260509193234 72 76 0.0 1.0 0.00 0.00 0.00 62 1011.8
20260509192731 71 264 1.0 2.0 0.00 0.00 0.00 60 1011.8
20260509192226 72 154 0.0 1.0 0.00 0.00 0.00 59 1011.9
20260509191722 74 233 1.0 3.0 0.00 0.00 0.00 56 1011.8